カタログに戻る

STARLINK-5428

運用中通信VLEO
NORAD 54800·PAYLOAD·🇺🇸 United States

打ち上げ Dec 17, 2022 から Cape Canaveral Space Force Station

Loading…

次のパス (今後24時間)

TLE

最新Source: CelesTrak SupGP

元期: Sep 14, 2026, 21:00 UTC

1 54800C 22175AU  26257.87548611  .00043348  00000+0  13942-2 0  2575
2 54800  53.1571 258.0017 0001231  93.7470  69.9289 15.31673977    14

AllMySatでSTARLINK-5428をリアルタイム追跡

Download on the App Store